Zurück zum Katalog

STARLINK-34123

AktivKommunikationVLEO
NORAD 63891·PAYLOAD·🇺🇸 United States

Gestartet May 10, 2025 von Cape Canaveral Space Force Station

Loading…

Nächste Überflüge (nächste 24 Stunden)

TLE

AktuellSource: CelesTrak SupGP

Epoche: Sep 14, 2026, 21:02 UTC

1 63891C 25095B   26257.87687500  .00004209  00000+0  15246-3 0  2573
2 63891  43.0015 188.1475 0001221 260.9186 236.3068 15.27576402    12

Verfolge STARLINK-34123 in Echtzeit mit AllMySat

Download on the App Store